Hourly Weather Barnowo

Today, 26 September, Saturday

Time Temperature Precipitation Wind Pressure Humidity
00:00 +15°C° 0 mm 2 mps 737 mmHg 92%
01:00 +14°C° 0 mm 2 mps 737 mmHg 92%
02:00 +14°C° 0.1 mm 2 mps 737 mmHg 92%
03:00 +14°C° 0.1 mm 2 mps 737 mmHg 93%
04:00 +14°C° 0.1 mm 3 mps 737 mmHg 93%
05:00 +14°C° 0.3 mm 3 mps 736 mmHg 94%
06:00 +14°C° 0.3 mm 3 mps 736 mmHg 94%
07:00 +14°C° 0.3 mm 4 mps 736 mmHg 95%
08:00 +15°C° 1.1 mm 4 mps 736 mmHg 93%
09:00 +17°C° 1.1 mm 4 mps 736 mmHg 92%
10:00 +16°C° 1.1 mm 5 mps 736 mmHg 91%
11:00 +17°C° 0.1 mm 5 mps 735 mmHg 85%
12:00 +20°C° 0.1 mm 5 mps 735 mmHg 79%
13:00 +21°C° 0.1 mm 5 mps 735 mmHg 72%
14:00 +21°C° 0 mm 5 mps 735 mmHg 73%
15:00 +20°C° 0 mm 4 mps 735 mmHg 74%
16:00 +20°C° 0 mm 4 mps 735 mmHg 75%
17:00 +20°C° 0.1 mm 4 mps 736 mmHg 78%
18:00 +19°C° 0.1 mm 4 mps 736 mmHg 80%
19:00 +17°C° 0.1 mm 5 mps 736 mmHg 83%
20:00 +18°C° 0 mm 4 mps 737 mmHg 85%
21:00 +18°C° 0 mm 3 mps 738 mmHg 88%
22:00 +17°C° 0 mm 2 mps 739 mmHg 90%
23:00 +17°C° 0 mm 2 mps 739 mmHg 91%

Tomorrow, 27 September, Sunday

Time Temperature Precipitation Wind Pressure Humidity
00:00 +17°C° 0 mm 2 mps 739 mmHg 92%
01:00 +18°C° 0 mm 1 mps 739 mmHg 93%
02:00 +17°C° 0.3 mm 2 mps 739 mmHg 92%
03:00 +17°C° 0.3 mm 3 mps 739 mmHg 91%
04:00 +17°C° 0.3 mm 4 mps 739 mmHg 89%
05:00 +17°C° 0 mm 4 mps 739 mmHg 86%
06:00 +17°C° 0 mm 4 mps 739 mmHg 83%
07:00 +16°C° 0 mm 5 mps 739 mmHg 79%
08:00 +17°C° 0 mm 5 mps 739 mmHg 75%
09:00 +19°C° 0 mm 6 mps 739 mmHg 72%
10:00 +20°C° 0 mm 7 mps 739 mmHg 68%
11:00 +20°C° 0 mm 7 mps 739 mmHg 67%
12:00 +21°C° 0 mm 6 mps 739 mmHg 66%
13:00 +21°C° 0 mm 6 mps 740 mmHg 66%
14:00 +21°C° 0 mm 6 mps 740 mmHg 65%
15:00 +20°C° 0 mm 5 mps 740 mmHg 64%
16:00 +20°C° 0 mm 5 mps 740 mmHg 63%
17:00 +19°C° 0 mm 5 mps 740 mmHg 66%
18:00 +17°C° 0 mm 5 mps 741 mmHg 68%
19:00 +17°C° 0 mm 5 mps 741 mmHg 70%
20:00 +17°C° 0 mm 4 mps 741 mmHg 74%
21:00 +15°C° 0 mm 4 mps 742 mmHg 77%
22:00 +15°C° 0 mm 4 mps 742 mmHg 81%
23:00 +14°C° 0 mm 4 mps 743 mmHg 82%

Day after tomorrow, 28 September, Monday

Time Temperature Precipitation Wind Pressure Humidity
00:00 +13°C° 0 mm 4 mps 743 mmHg 83%
01:00 +12°C° 0 mm 4 mps 743 mmHg 83%
02:00 +12°C° 0 mm 4 mps 743 mmHg 82%
03:00 +12°C° 0 mm 4 mps 744 mmHg 81%
04:00 +12°C° 0 mm 4 mps 744 mmHg 80%
05:00 +11°C° 0 mm 4 mps 744 mmHg 81%
06:00 +11°C° 0 mm 4 mps 745 mmHg 82%
07:00 +10°C° 0 mm 5 mps 745 mmHg 83%
08:00 +12°C° 0 mm 5 mps 746 mmHg 80%
09:00 +12°C° 0 mm 5 mps 746 mmHg 77%
10:00 +13°C° 0 mm 5 mps 747 mmHg 75%
11:00 +14°C° 0 mm 5 mps 747 mmHg 68%
12:00 +15°C° 0 mm 5 mps 748 mmHg 61%
13:00 +16°C° 0 mm 5 mps 748 mmHg 54%
14:00 +16°C° 0 mm 5 mps 748 mmHg 53%
15:00 +17°C° 0 mm 4 mps 748 mmHg 53%
16:00 +17°C° 0 mm 3 mps 748 mmHg 53%
17:00 +16°C° 0 mm 3 mps 748 mmHg 57%
18:00 +15°C° 0 mm 2 mps 749 mmHg 62%
19:00 +13°C° 0 mm 2 mps 749 mmHg 66%
20:00 +14°C° 0 mm 2 mps 749 mmHg 68%
21:00 +13°C° 0 mm 3 mps 749 mmHg 69%
22:00 +13°C° 0 mm 3 mps 749 mmHg 71%
23:00 +13°C° 0 mm 3 mps 749 mmHg 72%

29 September, Tuesday

Time Temperature Precipitation Wind Pressure Humidity
00:00 +13°C° 0 mm 2 mps 749 mmHg 73%
01:00 +13°C° 0 mm 2 mps 749 mmHg 74%
02:00 +13°C° 0 mm 2 mps 749 mmHg 73%
03:00 +13°C° 0 mm 2 mps 749 mmHg 73%
04:00 +13°C° 0 mm 2 mps 749 mmHg 73%
05:00 +13°C° 0 mm 2 mps 749 mmHg 74%
06:00 +13°C° 0 mm 1 mps 749 mmHg 75%
07:00 +13°C° 0 mm 1 mps 749 mmHg 76%
08:00 +15°C° 0 mm 1 mps 749 mmHg 70%
09:00 +16°C° 0 mm 1 mps 749 mmHg 65%
10:00 +19°C° 0 mm 1 mps 749 mmHg 59%
11:00 +20°C° 0 mm 1 mps 749 mmHg 57%
12:00 +21°C° 0 mm 1 mps 749 mmHg 55%
13:00 +21°C° 0 mm 2 mps 749 mmHg 53%
14:00 +20°C° 0 mm 2 mps 749 mmHg 55%
15:00 +20°C° 0 mm 2 mps 749 mmHg 58%
16:00 +20°C° 0 mm 2 mps 749 mmHg 60%
17:00 +18°C° 0 mm 2 mps 750 mmHg 67%
18:00 +17°C° 0 mm 2 mps 750 mmHg 73%
19:00 +15°C° 0 mm 2 mps 750 mmHg 80%
20:00 +15°C° 0 mm 2 mps 750 mmHg 81%
21:00 +15°C° 0 mm 2 mps 750 mmHg 83%
22:00 +14°C° 0 mm 2 mps 750 mmHg 84%
23:00 +14°C° 0 mm 1 mps 750 mmHg 85%

30 September, Wednesday

Time Temperature Precipitation Wind Pressure Humidity
00:00 +14°C° 0 mm 1 mps 750 mmHg 85%
01:00 +14°C° 0 mm 1 mps 750 mmHg 85%
02:00 +14°C° 0 mm 1 mps 750 mmHg 86%
03:00 +13°C° 0 mm 1 mps 750 mmHg 87%
04:00 +13°C° 0 mm 1 mps 750 mmHg 88%
05:00 +13°C° 0 mm 1 mps 750 mmHg 88%
06:00 +14°C° 0 mm 1 mps 749 mmHg 87%
07:00 +14°C° 0 mm 1 mps 749 mmHg 87%
08:00 +15°C° 0 mm 1 mps 750 mmHg 81%
09:00 +16°C° 0 mm 2 mps 750 mmHg 76%
10:00 +17°C° 0 mm 2 mps 750 mmHg 70%
11:00 +17°C° 0 mm 2 mps 750 mmHg 72%
12:00 +18°C° 0 mm 1 mps 749 mmHg 73%
13:00 +18°C° 0 mm 1 mps 749 mmHg 74%
14:00 +18°C° 0 mm 1 mps 749 mmHg 75%
15:00 +17°C° 0 mm 2 mps 749 mmHg 76%
16:00 +17°C° 0 mm 2 mps 748 mmHg 78%
17:00 +16°C° 0 mm 2 mps 748 mmHg 81%
18:00 +16°C° 0 mm 2 mps 748 mmHg 85%
19:00 +15°C° 0 mm 2 mps 748 mmHg 88%
20:00 +14°C° 0 mm 2 mps 748 mmHg 90%
21:00 +14°C° 0 mm 1 mps 748 mmHg 92%
22:00 +13°C° 0 mm 1 mps 748 mmHg 94%
23:00 +13°C° 0 mm 1 mps 748 mmHg 95%

1 October, Thursday

Time Temperature Precipitation Wind Pressure Humidity
00:00 +13°C° 0 mm 1 mps 747 mmHg 95%
01:00 +13°C° 0 mm 1 mps 747 mmHg 96%
02:00 +13°C° 0 mm 1 mps 747 mmHg 96%
03:00 +12°C° 0 mm 1 mps 747 mmHg 97%
04:00 +12°C° 0 mm 1 mps 746 mmHg 97%
05:00 +13°C° 0 mm 1 mps 746 mmHg 97%
06:00 +13°C° 0 mm 1 mps 746 mmHg 96%
07:00 +13°C° 0 mm 1 mps 746 mmHg 96%
08:00 +14°C° 0 mm 2 mps 746 mmHg 90%
09:00 +15°C° 0 mm 2 mps 746 mmHg 83%
10:00 +16°C° 0 mm 2 mps 745 mmHg 77%
11:00 +16°C° 0.2 mm 2 mps 745 mmHg 80%
12:00 +15°C° 0.2 mm 2 mps 745 mmHg 83%
13:00 +14°C° 0.2 mm 2 mps 744 mmHg 86%
14:00 +14°C° 0.1 mm 2 mps 744 mmHg 85%
15:00 +14°C° 0.1 mm 2 mps 744 mmHg 84%
16:00 +14°C° 0.1 mm 2 mps 744 mmHg 84%
17:00 +14°C° 0 mm 2 mps 744 mmHg 84%
18:00 +13°C° 0 mm 2 mps 743 mmHg 84%
19:00 +13°C° 0 mm 2 mps 743 mmHg 85%
20:00 +12°C° 0 mm 2 mps 743 mmHg 85%
21:00 +12°C° 0 mm 2 mps 743 mmHg 85%
22:00 +12°C° 0 mm 2 mps 742 mmHg 85%
23:00 +12°C° 0.2 mm 2 mps 742 mmHg 87%
Show more